Miscellaneous Local Product
Issued by NWS North Platte, NE

Home | Current Version | Previous Version | Graphics & Text | Print | Product List | Glossary On
Versions: 1 2 3 4 5 6 7 8 9 10 11 12 13 14 15 16 17 18 19 20 21 22 23 24 25 26 27 28 29 30 31 32 33 34 35 36 37 38 39 40 41 42 43 44 45 46 47 48 49 50
000
AXUS43 KLBF 020010
MISLBF


WESTERN AND NORTH CENTRAL NEBRASKA HOURLY WEATHER ROUNDUP
NATIONAL WEATHER SERVICE NORTH PLATTE NE
700 PM CDT TUE SEP 01 2015

NOTE: "FAIR" INDICATES FEW OR NO CLOUDS BELOW 12,000 FEET WITH NO
SIGNIFICANT WEATHER AND/OR OBSTRUCTIONS TO VISIBILITY.

NOTE: STATIONS NOT REPORTING VARIABLES SUCH AS SKY/WEATHER OR
PRESSURE ARE PROVIDED BY THE NEBRASKA DEPARTMENT OF
ROADS...RAWS...AND APRS NETWORKS...AND ARE NOT UNDER
NATIONAL WEATHER SERVICE QUALITY CONTROL.

...OBSERVATIONS IN AND NEAR THE EASTERN PANHANDLE OF NEBRASKA...

CITY           SKY/WX    TMP DP  RH WIND       PRES   REMARKS
PINE RIDGE     SUNNY     92  39  15 NW6       29.85S
CHADRON        SUNNY     94  37  13 NW5       29.83S
ALLIANCE       SUNNY     91  40  16 SW9       29.90S
SIDNEY         SUNNY     90  40  17 SE12      29.96S
BIG SPRINGS      N/A     88  53  29 S9          N/A
$$

...OBSERVATIONS IN NORTH CENTRAL NEBRASKA...

CITY           SKY/WX    TMP DP  RH WIND       PRES   REMARKS
VALENTINE      SUNNY     91  55  29 S16       29.83S
THEDFORD       SUNNY     90  57  32 S12       29.89S
AINSWORTH      SUNNY     86  60  41 S8        29.87S
O`NEILL        SUNNY     86  69  56 SE3       29.86S
ORD            SUNNY     87  63  44 S12G18    29.85S
BROKEN BOW     SUNNY     89  64  43 S7        29.88S HX  90
SARGENT          N/A     88  67  50 CALM        N/A  HX  91
CHAMBERS         N/A     86  68  54 CALM        N/A
EWING            N/A     85  70  61 S3          N/A
$$

...OBSERVATIONS IN SOUTHWEST NEBRASKA AND FAR NORTHEAST COLORADO...

CITY           SKY/WX    TMP DP  RH WIND       PRES   REMARKS
WRAY           CLOUDY    93  40  15 SE6       29.94S
HOLYOKE        FAIR      88  50  27 SE9       29.94F
IMPERIAL       SUNNY     93  39  15 SW5       29.92S
OGALLALA       SUNNY     91  51  25 S8        29.91S
NORTH PLATTE   SUNNY     89  57  33 SW6       29.88S
MCCOOK         SUNNY     93  55  27 S6        29.88F HX  91
LEXINGTON      SUNNY     87  64  46 SE12      29.89S
PAXTON           N/A     87  66  49 SE3         N/A
BRADY            N/A     85  68  57 NE5         N/A
CALLAWAY         N/A     83  72  69 S8          N/A
$$

...OBSERVATIONS IN CENTRAL LINCOLN COUNTY AREA...

CITY           SKY/WX    TMP DP  RH WIND       PRES   REMARKS
N.P. AIRPORT   SUNNY     89  57  33 SW6       29.88S
N.P. DOWNTOWN    N/A     92  58  31 CALM        N/A  HX  91
N.P. SOUTHEAST   N/A     92  57  30 CALM        N/A  HX  90
N.P. HILLCREST   N/A     90  58  33 S3          N/A
$$

...SOME OBSERVATIONS FROM AROUND THE REGION...

CITY           SKY/WX    TMP DP  RH WIND       PRES   REMARKS
DENVER         TSTM      74  49  41 NW15G26   30.09R
LARAMIE        LGT RAIN  73  38  27 N10       30.18R
CHEYENNE       PTSUNNY   82  34  17 W6        30.09S
SCOTTSBLUFF    SUNNY     90  43  19 SE6       29.91S
RAPID CITY     SUNNY     83  59  44 NE7       29.84S
PIERRE         SUNNY     86  63  45 SE24G31   29.75S
WINNER         FAIR      86  63  45 SE14      29.82S
SIOUX FALLS    CLOUDY    75  71  87 NE6       29.88R
OMAHA          MOCLDY    86  71  60 SE16      29.89S HX  91
GRAND ISLAND   MOSUNNY   91  62  37 S8        29.87S HX  91
KANSAS CITY    PTCLDY    84  67  56 S8        29.99R
WICHITA        MOSUNNY   88  67  49 SE15      29.93S HX  91
HAYS           MOSUNNY   97  57  26 S14       29.87S HX  95
LIBERAL        MOSUNNY   90  54  29 S18G24    29.96S
GOODLAND       MOSUNNY   91  49  23 CALM      29.95S
$$



USA.gov is the U.S. government's official web portal to all federal, state and local government web resources and services.